Location: Baia Mare
(47.6567°N, 23.5850°E)
Time: 13:54:31
(UTC+02:00)

ISS - Pass Details

Date: 03 February 2019
Orbit: 406 x 411 km, 51.6° (Epoch: 22 March)

Event Time Altitude Azimuth Distance (km) Brightness Sun altitude
Rises 19:30:27 0° 293° (WNW) 2,351 1.2 -20.6°
Reaches altitude 10° 19:32:33 10° 295° (WNW) 1,488 -0.1 -21.0°
Enters shadow 19:35:21 58° 318° (NW) 490 -3.3 -21.4°
